Regional Weather Roundup
Issued by NWS State College, PA

Home | Current Version | Previous Version | Graphics & Text | Print | Product List | Glossary Off
Versions: 1 2 3 4 5 6 7 8 9 10 11 12 13 14 15 16 17 18 19 20 21 22 23 24 25 26 27 28 29 30 31 32 33 34 35 36 37 38 39 40 41 42 43 44 45 46 47 48 49 50

000
ASUS41 KCTP 301410
RWRCTP

REGIONAL WEATHER ROUNDUP
NATIONAL WEATHER SERVICE STATE COLLEGE PA
1000 AM EDT THU MAR 30 2017

Note: "fair" indicates few or no clouds below 12,000 feet with no
significant weather and/or obstructions to visibility.

* = STATION THAT DOES NOT REPORT PRECIPITATION /E.G. RAIN...SNOW...ETC/
    THUNDER OR FOG.

PAZ002>004-007>009-013>016-020>023-029>032-301500-
WESTERN PENNSYLVANIA

CITY           SKY/WX    TMP DP  RH WIND       PRES   REMARKS
ERIE           LGT RAIN  42  28  57 SE7       30.06S
MEADVILLE      CLOUDY    40  27  59 VRB7G21   30.02F
FRANKLIN*      CLOUDY    39  25  56 E13G21    30.05F
NEW CASTLE     CLOUDY    45  30  55 E9G18     30.01F
BEAVER COUNTY  DRIZZLE   43  30  61 SE12G18   30.00F
BUTLER*        CLOUDY    43  28  56 E15G21    30.04F
PITTSBURGH INT CLOUDY    47  32  56 SE16      30.00F
PITTSBURGH     CLOUDY    47  29  49 E12G22    30.01F
INDIANA*       CLOUDY    43  28  56 SE16      30.11F
LATROBE        PTSUNNY   45  28  53 E6G17     30.07F
WASHINGTON CO* PTSUNNY   48  32  53 E14       30.00F
$$

PAZ004>006-010>012-017>019-024>028-033>037-041-042-045-046-049>053-301500-
CENTRAL PENNSYLVANIA

CITY           SKY/WX    TMP DP  RH WIND       PRES   REMARKS
BRADFORD       CLOUDY    35  22  58 E12       30.10F
DUBOIS         MIX PCPN  34  25  69 SE12      30.09F
CLEARFIELD     MIX PCPN  37  24  59 E6        30.15F
JOHNSTOWN      CLOUDY    39  26  59 SE14G22   30.09F
ALTOONA        CLOUDY    39  27  62 E7        30.17F
STATE COLLEGE  CLOUDY    39  23  52 E10       30.19F
WILLIAMSPORT   CLOUDY    42  25  50 VRB5      30.25F
SELINSGROVE    CLOUDY    40  25  55 E5        30.26F
FT INDIANTOWN  CLOUDY    41  23  50 VRB6      30.25S
CAPITAL CITY   CLOUDY    44  24  45 E9        30.26S
HARRISBURG     PTSUNNY   44  26  49 SE8       30.26S
YORK           CLOUDY    42  28  57 SE6       30.25S
$$

PAZ038>040-043-044-047-048-054-055-060>062-067>071-301500-
EASTERN PENNSYLVANIA

CITY           SKY/WX    TMP DP  RH WIND       PRES   REMARKS
SCRANTON       CLOUDY    38  24  57 CALM      30.23F
MOUNT POCONO   CLOUDY    36  19  50 N6        30.19S
ALLENTOWN      MOSUNNY   42  22  44 CALM      30.25F
QUAKERTOWN*    SUNNY     41  23  48 E3        30.25F
READING        CLOUDY    44  27  51 CALM      30.25F
LANCASTER      CLOUDY    43  28  55 SE7       30.26S
COATESVILLE    CLOUDY    41  23  48 E10       30.26S
POTTSTOWN      CLOUDY    41  24  51 E3        30.27F
BLUE BELL      SUNNY     43  25  49 E8        30.24F
DOYLESTOWN     SUNNY     42  23  46 N5        30.24F
WILLOW GROVE   NOT AVBL
NORTH PHILA    SUNNY     46  24  42 NE8       30.28F
PHILADELPHIA   CLOUDY    46  25  43 E8        30.28F
$$



USA.gov is the U.S. government's official web portal to all federal, state and local government web resources and services.